0 HST 1 20580U 90037B 25283.28393201 .00008493 00000-0 30482-3 0 9996 2 20580 28.4701 344.0082 0001862 243.0254 117.0151 15.26831166750284 0 ISS (ZARYA) 1 25544U 98067A 25282.94740148 .00010951 00000-0 20092-3 0 9998 2 25544 51.6320 98.3019 0000966 226.7270 133.3638 15.49808863532960 0 CXO 1 25867U 99040B 25283.14864612 .00000910 00000-0 00000-0 0 9992 2 25867 51.8364 124.8711 8250234 310.5442 0.1878 0.37810077 16378